• In Schweiz
  • Länderverzeichnis
  • Für 7 Tage
  • Wassertemperatur
  • Satellitenkarten
  • Wetterkarte
  • Widgets
  • user-avatar
    Anmelden

    Stündliche Wetter Moluprei

    Heute, 19 Oktober, Freitag

    Zeit Temperatur Niederschläge Wind Luftdruck Luftfeuchtigkeit
    00:00 +28°C° 1.2 mm 1 m/S 757 mmHg 83%
    01:00 +26°C° 0 mm 0 m/S 756 mmHg 86%
    02:00 +26°C° 1 mm 0 m/S 756 mmHg 87%
    03:00 +27°C° 1 mm 1 m/S 756 mmHg 88%
    04:00 +27°C° 1 mm 1 m/S 756 mmHg 89%
    05:00 +25°C° 0.8 mm 0 m/S 756 mmHg 89%
    06:00 +26°C° 0.8 mm 0 m/S 756 mmHg 88%
    07:00 +26°C° 0.8 mm 0 m/S 757 mmHg 88%
    08:00 +29°C° 0.4 mm 1 m/S 757 mmHg 82%
    09:00 +31°C° 0.4 mm 1 m/S 757 mmHg 76%
    10:00 +32°C° 0.4 mm 2 m/S 757 mmHg 71%
    11:00 +34°C° 0.2 mm 2 m/S 757 mmHg 67%
    12:00 +35°C° 0.2 mm 2 m/S 756 mmHg 64%
    13:00 +35°C° 0.2 mm 2 m/S 756 mmHg 60%
    14:00 +34°C° 1 mm 1 m/S 755 mmHg 62%
    15:00 +34°C° 1 mm 1 m/S 755 mmHg 63%
    16:00 +33°C° 1 mm 1 m/S 755 mmHg 65%
    17:00 +32°C° 0.5 mm 1 m/S 755 mmHg 70%
    18:00 +31°C° 0.5 mm 1 m/S 756 mmHg 74%
    19:00 +30°C° 0.5 mm 1 m/S 756 mmHg 79%
    20:00 +29°C° 0.5 mm 1 m/S 757 mmHg 81%
    21:00 +29°C° 0.5 mm 1 m/S 757 mmHg 84%
    22:00 +28°C° 0.5 mm 1 m/S 758 mmHg 86%
    23:00 +28°C° 1.3 mm 1 m/S 758 mmHg 88%

    Morgen, 20 Oktober, Samstag

    Zeit Temperatur Niederschläge Wind Luftdruck Luftfeuchtigkeit
    00:00 +28°C° 1.3 mm 1 m/S 758 mmHg 90%
    01:00 +28°C° 1.3 mm 1 m/S 758 mmHg 91%
    02:00 +27°C° 0.4 mm 1 m/S 757 mmHg 92%
    03:00 +27°C° 0.4 mm 1 m/S 757 mmHg 92%
    04:00 +27°C° 0.4 mm 1 m/S 757 mmHg 93%
    05:00 +27°C° 0.7 mm 1 m/S 757 mmHg 91%
    06:00 +28°C° 0.7 mm 1 m/S 757 mmHg 89%
    07:00 +28°C° 0.7 mm 1 m/S 757 mmHg 88%
    08:00 +29°C° 0.2 mm 2 m/S 758 mmHg 81%
    09:00 +31°C° 0.2 mm 3 m/S 758 mmHg 74%
    10:00 +33°C° 0.2 mm 4 m/S 758 mmHg 68%
    11:00 +34°C° 0.4 mm 4 m/S 758 mmHg 66%
    12:00 +34°C° 0.4 mm 4 m/S 757 mmHg 64%
    13:00 +35°C° 0.4 mm 4 m/S 756 mmHg 62%
    14:00 +34°C° 2.4 mm 4 m/S 756 mmHg 66%
    15:00 +33°C° 2.4 mm 3 m/S 755 mmHg 71%
    16:00 +31°C° 2.4 mm 3 m/S 755 mmHg 76%
    17:00 +30°C° 1.2 mm 3 m/S 756 mmHg 80%
    18:00 +29°C° 1.2 mm 2 m/S 756 mmHg 84%
    19:00 +28°C° 1.2 mm 2 m/S 757 mmHg 88%
    20:00 +28°C° 0.2 mm 2 m/S 757 mmHg 88%
    21:00 +28°C° 0.2 mm 2 m/S 758 mmHg 89%
    22:00 +27°C° 0.2 mm 2 m/S 758 mmHg 89%
    23:00 +27°C° 0.1 mm 2 m/S 758 mmHg 90%

    übermorgen, 21 Oktober, Sonntag

    Zeit Temperatur Niederschläge Wind Luftdruck Luftfeuchtigkeit
    00:00 +27°C° 0.1 mm 2 m/S 758 mmHg 91%
    01:00 +27°C° 0.1 mm 2 m/S 758 mmHg 92%
    02:00 +26°C° 0.2 mm 2 m/S 757 mmHg 92%
    03:00 +26°C° 0.2 mm 2 m/S 757 mmHg 93%
    04:00 +26°C° 0.2 mm 2 m/S 757 mmHg 94%
    05:00 +26°C° 0 mm 2 m/S 757 mmHg 93%
    06:00 +26°C° 0 mm 3 m/S 758 mmHg 92%
    07:00 +27°C° 0 mm 3 m/S 758 mmHg 91%
    08:00 +28°C° 0 mm 4 m/S 759 mmHg 86%
    09:00 +30°C° 0 mm 4 m/S 759 mmHg 81%
    10:00 +32°C° 0 mm 4 m/S 760 mmHg 75%
    11:00 +33°C° 1.3 mm 4 m/S 759 mmHg 73%
    12:00 +33°C° 1.3 mm 3 m/S 758 mmHg 71%
    13:00 +34°C° 1.3 mm 3 m/S 757 mmHg 69%
    14:00 +33°C° 2.3 mm 3 m/S 757 mmHg 71%
    15:00 +32°C° 2.3 mm 2 m/S 756 mmHg 73%
    16:00 +31°C° 2.3 mm 2 m/S 756 mmHg 76%
    17:00 +30°C° 2.3 mm 2 m/S 756 mmHg 79%
    18:00 +29°C° 2.3 mm 1 m/S 757 mmHg 83%
    19:00 +28°C° 2.3 mm 1 m/S 758 mmHg 87%
    20:00 +28°C° 0.4 mm 1 m/S 758 mmHg 87%
    21:00 +28°C° 0.4 mm 1 m/S 759 mmHg 88%
    22:00 +25°C° 0.4 mm 0 m/S 759 mmHg 88%
    23:00 +25°C° 0 mm 0 m/S 759 mmHg 89%

    22 Oktober, Montag

    Zeit Temperatur Niederschläge Wind Luftdruck Luftfeuchtigkeit
    00:00 +25°C° 0 mm 0 m/S 758 mmHg 90%
    01:00 +25°C° 0 mm 0 m/S 758 mmHg 91%
    02:00 +25°C° 0 mm 0 m/S 757 mmHg 91%
    03:00 +24°C° 0 mm 0 m/S 757 mmHg 92%
    04:00 +24°C° 0 mm 0 m/S 757 mmHg 92%
    05:00 +24°C° 0 mm 0 m/S 757 mmHg 91%
    06:00 +25°C° 0 mm 0 m/S 758 mmHg 90%
    07:00 +25°C° 0 mm 0 m/S 758 mmHg 89%
    08:00 +26°C° 0.1 mm 0 m/S 759 mmHg 82%
    09:00 +30°C° 0.1 mm 1 m/S 759 mmHg 76%
    10:00 +32°C° 0.1 mm 1 m/S 759 mmHg 69%
    11:00 +33°C° 0.1 mm 1 m/S 758 mmHg 64%
    12:00 +34°C° 0.1 mm 1 m/S 757 mmHg 59%
    13:00 +35°C° 0.1 mm 1 m/S 757 mmHg 54%
    14:00 +35°C° 0 mm 1 m/S 756 mmHg 55%
    15:00 +32°C° 0 mm 0 m/S 756 mmHg 56%
    16:00 +32°C° 0 mm 0 m/S 755 mmHg 56%
    17:00 +33°C° 0.2 mm 1 m/S 756 mmHg 62%
    18:00 +31°C° 0.2 mm 1 m/S 756 mmHg 68%
    19:00 +30°C° 0.2 mm 1 m/S 757 mmHg 74%
    20:00 +29°C° 0 mm 1 m/S 757 mmHg 77%
    21:00 +29°C° 0 mm 1 m/S 758 mmHg 79%
    22:00 +28°C° 0 mm 1 m/S 758 mmHg 81%
    23:00 +28°C° 0 mm 1 m/S 758 mmHg 83%

    23 Oktober, Dienstag

    Zeit Temperatur Niederschläge Wind Luftdruck Luftfeuchtigkeit
    00:00 +27°C° 0 mm 1 m/S 757 mmHg 84%
    01:00 +27°C° 0 mm 1 m/S 757 mmHg 85%
    02:00 +27°C° 0 mm 1 m/S 757 mmHg 86%
    03:00 +27°C° 0 mm 1 m/S 757 mmHg 86%
    04:00 +27°C° 0 mm 1 m/S 757 mmHg 87%
    05:00 +27°C° 0 mm 1 m/S 757 mmHg 86%
    06:00 +27°C° 0 mm 1 m/S 757 mmHg 86%
    07:00 +27°C° 0 mm 1 m/S 758 mmHg 85%
    08:00 +29°C° 0 mm 1 m/S 758 mmHg 79%
    09:00 +31°C° 0 mm 1 m/S 758 mmHg 72%
    10:00 +33°C° 0 mm 1 m/S 759 mmHg 66%
    11:00 +33°C° 0.2 mm 1 m/S 758 mmHg 63%
    12:00 +34°C° 0.2 mm 1 m/S 757 mmHg 61%
    13:00 +34°C° 0.2 mm 1 m/S 756 mmHg 58%
    14:00 +34°C° 0.3 mm 1 m/S 756 mmHg 59%
    15:00 +34°C° 0.3 mm 1 m/S 755 mmHg 60%
    16:00 +35°C° 0.3 mm 2 m/S 755 mmHg 61%
    17:00 +33°C° 1 mm 1 m/S 756 mmHg 69%
    18:00 +31°C° 1 mm 1 m/S 756 mmHg 76%
    19:00 +29°C° 1 mm 1 m/S 757 mmHg 83%
    20:00 +29°C° 1 mm 1 m/S 757 mmHg 84%
    21:00 +28°C° 1 mm 1 m/S 758 mmHg 85%
    22:00 +28°C° 1 mm 1 m/S 758 mmHg 86%
    23:00 +28°C° 0.3 mm 1 m/S 758 mmHg 87%

    24 Oktober, Mittwoch

    Zeit Temperatur Niederschläge Wind Luftdruck Luftfeuchtigkeit
    00:00 +28°C° 0.3 mm 1 m/S 758 mmHg 88%
    01:00 +27°C° 0.3 mm 1 m/S 757 mmHg 88%
    02:00 +27°C° 0.9 mm 1 m/S 757 mmHg 89%
    03:00 +27°C° 0.9 mm 1 m/S 757 mmHg 90%
    04:00 +26°C° 0.9 mm 1 m/S 757 mmHg 91%
    05:00 +25°C° 0.4 mm 0 m/S 757 mmHg 90%
    06:00 +25°C° 0.4 mm 0 m/S 757 mmHg 89%
    07:00 +25°C° 0.4 mm 0 m/S 758 mmHg 88%
    08:00 +29°C° 0.4 mm 1 m/S 758 mmHg 82%
    09:00 +30°C° 0.4 mm 1 m/S 758 mmHg 76%
    10:00 +32°C° 0.4 mm 2 m/S 758 mmHg 70%
    11:00 +34°C° 0.2 mm 2 m/S 758 mmHg 67%
    12:00 +34°C° 0.2 mm 2 m/S 757 mmHg 65%
    13:00 +35°C° 0.2 mm 2 m/S 756 mmHg 62%
    14:00 +35°C° 0.2 mm 2 m/S 756 mmHg 62%
    15:00 +35°C° 0.2 mm 2 m/S 756 mmHg 62%
    16:00 +34°C° 0.2 mm 1 m/S 755 mmHg 63%
    17:00 +33°C° 0.1 mm 1 m/S 756 mmHg 67%
    18:00 +31°C° 0.1 mm 1 m/S 756 mmHg 71%
    19:00 +30°C° 0.1 mm 1 m/S 757 mmHg 75%
    20:00 +29°C° 0 mm 1 m/S 757 mmHg 77%
    21:00 +29°C° 0 mm 1 m/S 758 mmHg 79%
    22:00 +29°C° 0 mm 1 m/S 758 mmHg 80%
    23:00 +28°C° 0.2 mm 1 m/S 758 mmHg 83%
    Mehr zeigen